Regional Weather Roundup
Issued by NWS

Home | Current Version | Previous Version | Text Only | Print | Product List | Glossary On
Versions: 1 2 3 4 5 6 7 8 9 10 11 12 13 14 15 16 17 18 19 20 21 22 23 24 25 26 27 28 29 30 31 32 33 34 35 36 37 38 39 40 41 42 43 44 45 46 47 48 49 50
000
ASUS44 KJAN 030910
RWRMS

MISSISSIPPI HOURLY WEATHER ROUNDUP
NATIONAL WEATHER SERVICE JACKSON MS
400 AM CDT TUE MAY 03 2016

NOTE: "FAIR: INDICATES FEW OR NO CLOUDS BELOW 12,000 FEET WITH NO
SIGNIFICANT WEATHER AND/OR OBSTRUCTIONS TO VISIBILITY.

MSZ001>002-007>008-010>013-018>021-025>028-034>036-031000-
NORTHWEST MISSISSIPPI

CITY           SKY/WX    TMP DP  RH WIND       PRES   REMARKS
BATESVILLE     CLOUDY    58  56  92 CALM      29.97S
CLEVELAND      PTSUNNY   59  59 100 N9        29.98R
GREENWOOD      CLEAR     60  57  89 CALM      29.96S
GREENVILLE     CLEAR     59  54  83 N9        29.98R
OLIVE BRANCH   CLOUDY    55  55 100 N8        29.98R
OXFORD         MOCLDY    57  57 100 NW3       29.97F FOG
TUNICA         SUNNY     54  52  94 N6        29.99R
WINONA         PTSUNNY   59  59 100 CALM      29.95S
$$

MSZ003>006-009-014>017-022>024-029>033-037>039-031000-
NORTHEAST MISSISSIPPI

CITY           SKY/WX    TMP DP  RH WIND       PRES   REMARKS
COLUMBUS AFB   CLOUDY    62  59  90 NW8       29.93S
CORINTH        CLOUDY    59  57  94 N5        29.94F
GOLDN TRIANGLE CLOUDY    63  57  82 NW5       29.93S
STARKVILLE     CLOUDY    61  59  94 CALM      29.94S
TUPELO         PTCLDY    59  56  89 NW3       29.94S
$$

MSZ040-058-031000-
CENTRAL MISSISSIPPI

CITY           SKY/WX    TMP DP  RH WIND       PRES   REMARKS
JACKSON INTL   CLOUDY    63  60  90 NW3       29.96S
JACKSON HAWKNS CLOUDY    62  60  93 NW3       29.96S
MADISON        PTSUNNY   61  59  94 CALM      29.95F
MERIDIAN KEY   CLOUDY    63  60  90 N8        29.93F
MERIDIAN NAS   CLOUDY    63  60  90 NW5       29.94S
VICKSBURG TVR  CLOUDY    64  60  87 N7        29.98R
VICKSBURG VKS  CLOUDY    64  61  88 NW5       29.98S
$$

MSZ059>079-031000-
SOUTH MISSISSIPPI

CITY           SKY/WX    TMP DP  RH WIND       PRES   REMARKS
BROOKHAVEN     CLOUDY   N/A N/A N/A N7        29.97S
COLUMBIA       CLOUDY    66  64  94 NW6       29.97F
HATTIESBURG    CLOUDY    68  65  90 N7        29.94R
MCCOMB         CLOUDY    65  65 100 N12       29.94F
NATCHEZ        CLOUDY    63  59  88 NW5       29.98S
PINE BELT      CLOUDY    64  63  94 N7        29.94S
$$

MSZ080>082-031000-
COASTAL MISSISSIPPI

CITY           SKY/WX    TMP DP  RH WIND       PRES   REMARKS
BILOXI         PTCLDY    70  70 100 CALM      29.89F FOG
PASCAGOULA     MOCLDY    71  70  96 CALM      29.90S FOG
GULFPORT       FOG       68  67  96 CALM      29.89F VSB 1/4
$$



USA.gov is the U.S. government's official web portal to all federal, state and local government web resources and services.